Weather Service Report


302 
ASUS41 KCLE 171112
RWRCLE
OHIO REGIONAL WEATHER ROUNDUP
NATIONAL WEATHER SERVICE WILMINGTON, OH
600 AM EST TUE JAN 17 2017

NOTE: "FAIR" INDICATES FEW OR NO CLOUDS BELOW 12,000 FEET WITH NO
SIGNIFICANT WEATHER AND/OR OBSTRUCTIONS TO VISIBILITY.

OHZ001>008-015>018-024>027-034-035-043-044-171200-
   NORTHWEST OHIO
  
CITY           SKY/WX    TMP DP  RH WIND       PRES   REMARKS
DEFIANCE       FOG       40  38  93 E3        29.81F VSB 1/4          
FINDLAY        CLOUDY    51  47  86 S15       29.84F                  
TOLEDO EXPRESS LGT RAIN  37  37 100 E6        29.82F VSB 1/4          
TOLEDO EXEC    FOG       37  37 100 NE3       29.85F VSB 1/4          
LIMA           CLOUDY    52  52 100 S9        29.84F                  
$$
 
OHZ009>014-019>023-028>033-038-089-171200-
   NORTHEAST OHIO
  
CITY           SKY/WX    TMP DP  RH WIND       PRES   REMARKS
CLE-HOPKINS    LGT RAIN  49  45  86 S12       29.92F                  
CLE-LAKEFRONT  LGT RAIN  46  44  93 S20       29.90F                  
CUY CO. ARPT   NOT AVBL                                               
LORAIN-ELYRIA  LGT RAIN  46  43  89 S16       29.89F                  
ASHTABULA      CLOUDY    42  41  96 SE8       29.96F                  
AKRON-CANTON   LGT RAIN  45  43  93 SE12      29.96F FOG              
WOOSTER        FOG       42  41  96 SE7       29.94F VSB 1/2          
MANSFIELD      CLOUDY    51  50  96 S16       29.90F                  
YOUNGSTOWN     RAIN      42  41  96 SE13      29.99F FOG              
$$
 
OHZ042-051>053-060>062-070>072-077>081-171200-
  SOUTHWEST OHIO
  
CITY           SKY/WX    TMP DP  RH WIND       PRES   REMARKS
CINC-COVINGTON CLOUDY    58  56  93 S16       29.89F                  
CINC-LUNKEN    CLOUDY    58  57  97 S14       29.91F                  
HAMILTON       LGT RAIN  58  57  97 SW6       29.90F                  
DAYTON         RAIN      55  54  96 S15G24    29.87F FOG              
WRIGHT-PAT AFB LGT RAIN  56  56 100 S10       29.87F                  
DAYTON GENERAL LGT RAIN  56  55  97 S13       29.87F                  
WILMINGTON     LGT RAIN  55  54  96 S15G25    29.90S                  
$$

OHZ036-037-039>041-045>050-054>059-063>069-073>076-082>088-171200-
  CENTRAL AND SOUTHEAST OHIO
  
CITY           SKY/WX    TMP DP  RH WIND       PRES   REMARKS
COLUMBUS       CLOUDY    56  55  97 S9        29.91F                  
OSU AIRPORT    CLOUDY    52  52 100 S7        29.90F                  
BOLTON FIELD   CLOUDY    51  51 100 S7        29.91F                  
RICKENBACK AFB   N/A     53  53 100 S12       29.90F                  
NEWARK         CLOUDY    54  51  90 S9        29.93F                  
MARION         CLOUDY    53  51  93 S16       29.88F                  
LANCASTER      LGT RAIN  57  53  86 S15G23    29.93F                  
ZANESVILLE     LGT RAIN  53  50  89 S10       29.97F                  
NEW PHILLY     CLOUDY    44  44 100 CALM      29.99S FOG              
$$
  

Return to Home page


Western Regional Climate Center, wrcc@dri.edu